Location: *
(55.6049°S, 142.1985°W)
Time: 00:58:35
(UTC+00:00)

ATLAS 2AS CENTAUR R/B - Pass Details

Date: 12 May 2021
Orbit: 949 x 1263 km, 63.7° (Epoch: 07 May)

Event Time Altitude Azimuth Distance (km) Brightness Sun altitude
Exits shadow 14:17:39 46° 234° (SW) 1,309 2.8 -24.5°
Maximum altitude 14:18:49 52° 201° (SSW) 1,232 2.8 -24.3°
Drops below altitude 10° 14:25:20 10° 124° (SE) 2,857 5.7 -23.4°
Sets 14:28:08 0° 119° (ESE) 3,856 6.6 -23.0°
